VU2EXP-13 Weather Reports


time (UTC)temp
C
wind
direction
speed
KPH
gust
KPH
rain 1hr
cm
rain 24hr
cm
rain mn
cm
humidity
%
barometer
mb
20260508230715 31 0.0 0.0 0.00 0.00 0.00 61 991.4
20260508225215 31 0.0 0.0 0.00 0.00 0.00 61 991.3
20260508223715 31 0.0 0.0 0.00 0.00 0.00 61 991.3
20260508222215 31 0.0 0.0 0.00 0.00 0.00 60 991.2
20260508220714 31 0.0 0.0 0.00 0.00 0.00 59 991.2
20260508215214 31 0.0 0.0 0.00 0.00 0.00 59 991.3
20260508213714 31 0.0 0.0 0.00 0.00 0.00 58 991.3
20260508212213 32 0.0 0.0 0.00 0.00 0.00 58 991.3
20260508210713 31 0.0 0.0 0.00 0.00 0.00 58 991.5
20260508205213 31 0.0 0.0 0.00 0.00 0.00 58 991.6
20260508203713 32 0.0 0.0 0.00 0.00 0.00 57 991.6
20260508202213 32 0.0 0.0 0.00 0.00 0.00 57 991.7
20260508200713 32 0.0 0.0 0.00 0.00 0.00 56 991.9
20260508195213 32 0.0 0.0 0.00 0.00 0.00 56 992.0
20260508193713 32 0.0 0.0 0.00 0.00 0.00 56 992.1
20260508192213 32 0.0 0.0 0.00 0.00 0.00 55 992.2
20260508190712 32 0.0 0.0 0.00 0.00 0.00 54 992.4
20260508185213 32 0.0 0.0 0.00 0.00 0.00 54 992.4
20260508183713 33 0.0 0.0 0.00 0.00 0.00 53 992.6
20260508182212 33 0.0 0.0 0.00 0.00 0.00 53 992.8
20260508180723 33 0.0 0.0 0.00 0.00 0.00 52 987.3
20260508180521 33 0.0 0.0 0.00 0.00 0.00 52 992.7
20260508175021 33 0.0 0.0 0.00 0.00 0.00 52 992.8
20260508173521 33 0.0 0.0 0.00 0.00 0.00 51 992.8
20260508172020 33 0.0 0.0 0.00 0.00 0.00 50 992.6
20260508170520 34 0.0 0.0 0.00 0.00 0.00 49 992.6
20260508165021 34 0.0 0.0 0.00 0.00 0.00 48 992.5
20260508163520 34 0.0 0.0 0.00 0.00 0.00 47 992.5
20260508162021 34 0.0 0.0 0.00 0.00 0.00 47 992.3
20260508160520 35 0.0 0.0 0.00 0.00 0.00 46 992.2
20260508155020 35 0.0 0.0 0.00 0.00 0.00 46 991.9
20260508153520 35 0.0 0.0 0.00 0.00 0.00 45 991.8
20260508152019 35 0.0 0.0 0.00 0.00 0.00 44 991.7
20260508150520 36 0.0 0.0 0.00 0.00 0.00 43 991.4
20260508145019 36 0.0 0.0 0.00 0.00 0.00 42 991.2
20260508143526 36 0.0 0.0 0.00 0.00 0.00 40 991.0
20260508142019 36 0.0 0.0 0.00 0.00 0.00 39 990.8
20260508140519 36 0.0 0.0 0.00 0.00 0.00 38 990.7
20260508135020 37 0.0 0.0 0.00 0.00 0.00 37 990.5
20260508133519 37 0.0 0.0 0.00 0.00 0.00 37 990.3
20260508132019 37 0.0 0.0 0.00 0.00 0.00 37 990.0
20260508130519 38 0.0 0.0 0.00 0.00 0.00 36 989.8
20260508125019 38 0.0 0.0 0.00 0.00 0.00 35 989.5
20260508123519 39 0.0 0.0 0.00 0.00 0.00 32 989.3
20260508122018 40 0.0 0.0 0.00 0.00 0.00 31 989.2
20260508120519 40 0.0 0.0 0.00 0.00 0.00 25 989.0
20260508115019 40 0.0 0.0 0.00 0.00 0.00 18 988.8
20260508113518 42 0.0 0.0 0.00 0.00 0.00 17 988.8
20260508112018 42 0.0 0.0 0.00 0.00 0.00 17 988.7
20260508110527 43 0.0 0.0 0.00 0.00 0.00 16 988.7
20260508105018 43 0.0 0.0 0.00 0.00 0.00 16 988.9
20260508103518 43 0.0 0.0 0.00 0.00 0.00 17 989.1
20260508102018 43 0.0 0.0 0.00 0.00 0.00 16 989.2
20260508100529 43 0.0 0.0 0.00 0.00 0.00 17 982.4
20260508095617 43 0.0 0.0 0.00 0.00 0.00 17 989.5
20260508094117 43 0.0 0.0 0.00 0.00 0.00 17 989.7
20260508092618 43 0.0 0.0 0.00 0.00 0.00 18 990.0
20260508091118 43 0.0 0.0 0.00 0.00 0.00 18 990.3
20260508085616 42 0.0 0.0 0.00 0.00 0.00 18 990.4
20260508084117 42 0.0 0.0 0.00 0.00 0.00 20 990.6
20260508082617 42 0.0 0.0 0.00 0.00 0.00 20 990.9
20260508081117 42 0.0 0.0 0.00 0.00 0.00 20 991.1
20260508075617 41 0.0 0.0 0.00 0.00 0.00 20 991.4
20260508074116 40 0.0 0.0 0.00 0.00 0.00 23 991.5
20260508072616 40 0.0 0.0 0.00 0.00 0.00 24 991.8
20260508071116 39 0.0 0.0 0.00 0.00 0.00 23 991.9
20260508065617 38 0.0 0.0 0.00 0.00 0.00 24 992.1
20260508064116 37 0.0 0.0 0.00 0.00 0.00 24 992.3
20260508062616 37 0.0 0.0 0.00 0.00 0.00 25 992.4
20260508061115 36 0.0 0.0 0.00 0.00 0.00 25 992.5
20260508055616 36 0.0 0.0 0.00 0.00 0.00 26 992.6
20260508054116 36 0.0 0.0 0.00 0.00 0.00 29 992.7
20260508052616 35 0.0 0.0 0.00 0.00 0.00 32 992.7
20260508051115 35 0.0 0.0 0.00 0.00 0.00 35 992.7
20260508045615 35 0.0 0.0 0.00 0.00 0.00 38 992.8
20260508044115 34 0.0 0.0 0.00 0.00 0.00 39 992.9
20260508042615 33 0.0 0.0 0.00 0.00 0.00 43 993.0
20260508041115 33 0.0 0.0 0.00 0.00 0.00 45 993.1
20260508035615 32 0.0 0.0 0.00 0.00 0.00 48 993.1
20260508034114 32 0.0 0.0 0.00 0.00 0.00 49 993.0
20260508032615 31 0.0 0.0 0.00 0.00 0.00 50 993.0
20260508031115 31 0.0 0.0 0.00 0.00 0.00 51 992.9
20260508025614 31 0.0 0.0 0.00 0.00 0.00 52 992.8
20260508024114 31 0.0 0.0 0.00 0.00 0.00 53 992.6
20260508022614 30 0.0 0.0 0.00 0.00 0.00 52 992.5
20260508021114 30 0.0 0.0 0.00 0.00 0.00 53 992.3
20260508015613 30 0.0 0.0 0.00 0.00 0.00 55 992.1
20260508014113 30 0.0 0.0 0.00 0.00 0.00 55 991.9
20260508012613 30 0.0 0.0 0.00 0.00 0.00 56 991.5
20260508011114 30 0.0 0.0 0.00 0.00 0.00 56 991.3
20260508005613 30 0.0 0.0 0.00 0.00 0.00 56 991.0
20260508004112 30 0.0 0.0 0.00 0.00 0.00 56 990.9
20260508002612 30 0.0 0.0 0.00 0.00 0.00 55 990.8
20260508001112 31 0.0 0.0 0.00 0.00 0.00 54 990.7
20260507235613 31 0.0 0.0 0.00 0.00 0.00 54 990.6
20260507234112 30 0.0 0.0 0.00 0.00 0.00 53 990.3
20260507232613 30 0.0 0.0 0.00 0.00 0.00 53 990.3